Weather History for KHCO - July, 2013

Change the Weather History Date:

Wednesday, July 3, 2013

  Actual Average Record
Temperature  
Mean Temperature 74 °F -  
Max Temperature 87 °F 78 °F 93 °F (1933)
Min Temperature 60 °F 54 °F 38 °F (1942)
Cooling Degree Days 8    
Growing Degree Days 24 (Base 50)    
Moisture  
Dew Point 59 °F    
Average Humidity 61    
Maximum Humidity 88    
Minimum Humidity 33    
Precipitation  
Precipitation 0.00 in - - ()
Sea Level Pressure  
Sea Level Pressure 29.92 in    
Wind  
Wind Speed 7 mph (South)    
Max Wind Speed 16 mph    
Max Gust Speed 20 mph    
Visibility 10 miles    
Events      
Averages and records for this station are not official NWS values.
T = Trace of Precipitation, MM = Missing Value Source: NWS Daily Summary

Daily Weather History Graph

Daily Weather History Graph

Search for Another Location

Airport or City:

Trip Planner

Search our weather history database for the weather conditions in past years. The results will help you decide how hot, cold, wet, or windy it might be!

Date:

Astronomy

Jul. 03, 2013 Rise Set
Actual Time 5:30 AM CDT 9:33 PM CDT
Civil Twilight 4:48 AM CDT 10:15 PM CDT
Nautical Twilight 3:49 AM CDT 11:13 PM CDT
Astronomical Twilight 2:01 AM CDT 12:58 AM CDT
Moon 2:20 AM CDT (7/3) 5:36 PM CDT (7/3)
Length of Visible Light 17h 26m
Length of Day
16h 03m
Waning Crescent, 18% of the Moon is Illuminated
Jul 3
Waning Crescent
Jul 8
New
Jul 15
First Quarter
Jul 22
Full
Jul 29
Last Quarter

Hourly Weather History & Observations

Time (CDT) Temp. Heat Index Dew Point Humidity Pressure Visibility Wind Dir Wind Speed Gust Speed Precip Events Conditions
12:13 AM 71.6 °F - 60.8 °F 69% 30.00 in 10.0 mi SSE 8.1 mph - N/A   Clear
12:33 AM 69.8 °F - 60.8 °F 73% 30.00 in 10.0 mi SSE 8.1 mph - N/A   Scattered Clouds
12:53 AM 68.0 °F - 60.8 °F 78% 30.00 in 10.0 mi SSE 8.1 mph - N/A   Scattered Clouds
1:13 AM 66.2 °F - 60.8 °F 83% 30.00 in 10.0 mi SE 9.2 mph - N/A   Clear
1:33 AM 66.2 °F - 60.8 °F 83% 30.00 in 10.0 mi SSE 6.9 mph - N/A   Clear
1:53 AM 64.4 °F - 60.8 °F 88% 30.00 in 10.0 mi SSE 8.1 mph - N/A   Clear
2:13 AM 64.4 °F - 60.8 °F 88% 30.00 in 10.0 mi SSE 6.9 mph - N/A   Clear
2:33 AM 64.4 °F - 59.0 °F 83% 29.99 in 10.0 mi South 6.9 mph - N/A   Clear
2:53 AM 62.6 °F - 59.0 °F 88% 29.99 in 10.0 mi SSE 6.9 mph - N/A   Clear
3:13 AM 62.6 °F - 59.0 °F 88% 29.99 in 10.0 mi South 6.9 mph - N/A   Clear
3:33 AM 62.6 °F - 59.0 °F 88% 29.99 in 10.0 mi South 5.8 mph - N/A   Clear
3:53 AM 60.8 °F - 57.2 °F 88% 29.99 in 10.0 mi South 5.8 mph - N/A   Clear
4:13 AM 60.8 °F - 57.2 °F 88% 29.99 in 10.0 mi South 5.8 mph - N/A   Clear
4:33 AM 60.8 °F - 57.2 °F 88% 29.99 in 10.0 mi South 5.8 mph - N/A   Clear
4:53 AM 60.8 °F - 57.2 °F 88% 29.98 in 10.0 mi South 6.9 mph - N/A   Clear
5:13 AM 60.8 °F - 57.2 °F 88% 29.98 in 10.0 mi SSE 5.8 mph - N/A   Clear
5:34 AM 60.8 °F - 57.2 °F 88% 29.98 in 10.0 mi South 4.6 mph - N/A   Clear
5:53 AM 60.8 °F - 57.2 °F 88% 29.99 in 10.0 mi SSE 5.8 mph - N/A   Clear
6:13 AM 60.8 °F - 57.2 °F 88% 29.99 in 10.0 mi South 4.6 mph - N/A   Clear
6:34 AM 60.8 °F - 57.2 °F 88% 29.99 in 10.0 mi SSE 3.5 mph - N/A   Clear
6:53 AM 62.6 °F - 59.0 °F 88% 29.99 in 10.0 mi Calm Calm - N/A   Clear
7:13 AM 64.4 °F - 60.8 °F 88% 29.99 in 10.0 mi Calm Calm - N/A   Clear
7:34 AM 66.2 °F - 60.8 °F 83% 29.99 in 10.0 mi Calm Calm - N/A   Clear
7:53 AM 69.8 °F - 60.8 °F 73% 29.99 in 10.0 mi Calm Calm - N/A   Clear
8:13 AM 69.8 °F - 62.6 °F 78% 29.99 in 10.0 mi Calm Calm - N/A   Clear
8:34 AM 71.6 °F - 64.4 °F 78% 29.98 in 10.0 mi Calm Calm - N/A   Clear
8:53 AM 73.4 °F - 64.4 °F 73% 29.98 in 10.0 mi Calm Calm - N/A   Clear
9:13 AM 75.2 °F - 64.4 °F 69% 29.98 in 10.0 mi South 4.6 mph - N/A   Clear
9:33 AM 77.0 °F - 64.4 °F 65% 29.98 in 10.0 mi South 5.8 mph - N/A   Clear
9:53 AM 78.8 °F - 64.4 °F 61% 29.97 in 10.0 mi South 4.6 mph - N/A   Clear
10:13 AM 78.8 °F - 62.6 °F 57% 29.96 in 10.0 mi South 4.6 mph - N/A   Clear
10:33 AM 80.6 °F 81.8 °F 62.6 °F 54% 29.96 in 10.0 mi South 5.8 mph - N/A   Clear
10:53 AM 82.4 °F 82.9 °F 60.8 °F 48% 29.95 in 10.0 mi South 4.6 mph - N/A   Clear
11:12 AM 82.4 °F 83.4 °F 62.6 °F 51% 29.95 in 10.0 mi South 5.8 mph - N/A   Clear
11:33 AM 82.4 °F 82.9 °F 60.8 °F 48% 29.94 in 10.0 mi South 6.9 mph - N/A   Clear
11:53 AM 84.2 °F 84.4 °F 60.8 °F 45% 29.94 in 10.0 mi South 6.9 mph - N/A   Clear
12:13 PM 84.2 °F 85.0 °F 62.6 °F 48% 29.93 in 10.0 mi SSW 6.9 mph - N/A   Clear
12:33 PM 86.0 °F 84.9 °F 57.2 °F 37% 29.93 in 10.0 mi SSW 9.2 mph - N/A   Clear
12:53 PM 86.0 °F 86.1 °F 60.8 °F 43% 29.92 in 10.0 mi SSW 8.1 mph - N/A   Scattered Clouds
1:13 PM 86.0 °F 84.9 °F 57.2 °F 37% 29.92 in 10.0 mi South 8.1 mph - N/A   Scattered Clouds
1:33 PM 87.8 °F 86.5 °F 57.2 °F 35% 29.92 in 10.0 mi South 11.5 mph - N/A   Mostly Cloudy
1:54 PM 82.4 °F 82.9 °F 60.8 °F 48% 29.91 in 10.0 mi SSW 5.8 mph - N/A   Mostly Cloudy
2:13 PM 84.2 °F 84.4 °F 60.8 °F 45% 29.91 in 10.0 mi SSW 5.8 mph - N/A   Scattered Clouds
2:33 PM 87.8 °F 87.1 °F 59.0 °F 38% 29.91 in 10.0 mi South 12.7 mph 19.6 mph N/A   Scattered Clouds
2:54 PM 86.0 °F 84.5 °F 55.4 °F 35% 29.90 in 10.0 mi SSW 5.8 mph - N/A   Scattered Clouds
3:13 PM 87.8 °F 86.1 °F 55.4 °F 33% 29.89 in 10.0 mi SSW 11.5 mph 17.3 mph N/A   Scattered Clouds
3:33 PM 86.0 °F 85.4 °F 59.0 °F 40% 29.89 in 10.0 mi South 10.4 mph - N/A   Clear
3:54 PM 87.8 °F 86.1 °F 55.4 °F 33% 29.88 in 10.0 mi SSW 12.7 mph - N/A   Scattered Clouds
4:13 PM 87.8 °F 86.5 °F 57.2 °F 35% 29.88 in 10.0 mi South 11.5 mph - N/A   Clear
4:33 PM 87.8 °F 86.1 °F 55.4 °F 33% 29.87 in 10.0 mi South 11.5 mph - N/A   Clear
4:54 PM 87.8 °F 86.1 °F 55.4 °F 33% 29.87 in 10.0 mi South 13.8 mph - N/A   Scattered Clouds
5:13 PM 87.8 °F 86.1 °F 55.4 °F 33% 29.86 in 10.0 mi South 16.1 mph - N/A   Clear
5:33 PM 87.8 °F 86.1 °F 55.4 °F 33% 29.86 in 10.0 mi South 11.5 mph - N/A   Clear
5:54 PM 86.0 °F 84.9 °F 57.2 °F 37% 29.85 in 10.0 mi South 12.7 mph - N/A   Clear
6:13 PM 86.0 °F 84.9 °F 57.2 °F 37% 29.84 in 10.0 mi South 13.8 mph - N/A   Clear
6:33 PM 84.2 °F 83.5 °F 57.2 °F 40% 29.84 in 10.0 mi South 12.7 mph 18.4 mph N/A   Clear
6:54 PM 84.2 °F 83.5 °F 57.2 °F 40% 29.84 in 7.0 mi South 12.7 mph 18.4 mph N/A   Clear
7:13 PM 84.2 °F 83.5 °F 57.2 °F 40% 29.83 in 10.0 mi South 11.5 mph 16.1 mph N/A   Clear
7:33 PM 82.4 °F 82.0 °F 57.2 °F 42% 29.83 in 10.0 mi South 11.5 mph - N/A   Clear
7:54 PM 82.4 °F 82.9 °F 60.8 °F 48% 29.83 in 10.0 mi South 9.2 mph - N/A   Clear
8:13 PM 80.6 °F 81.5 °F 60.8 °F 51% 29.83 in 10.0 mi South 9.2 mph - N/A   Scattered Clouds
8:33 PM 80.6 °F 81.1 °F 59.0 °F 48% 29.82 in 10.0 mi South 9.2 mph - N/A   Scattered Clouds
8:53 PM 78.8 °F - 59.0 °F 51% 29.82 in 10.0 mi South 9.2 mph - N/A   Scattered Clouds
9:13 PM 78.8 °F - 60.8 °F 54% 29.82 in 10.0 mi South 8.1 mph - N/A   Clear
9:34 PM 77.0 °F - 60.8 °F 57% 29.82 in 10.0 mi South 9.2 mph - N/A   Clear
9:53 PM 75.2 °F - 60.8 °F 61% 29.82 in 10.0 mi South 9.2 mph - N/A   Clear
10:13 PM 73.4 °F - 59.0 °F 61% 29.82 in 10.0 mi South 9.2 mph - N/A   Clear
10:33 PM 73.4 °F - 59.0 °F 61% 29.82 in 10.0 mi South 9.2 mph - N/A   Clear
10:53 PM 73.4 °F - 60.8 °F 65% 29.81 in 10.0 mi SSE 6.9 mph - N/A   Clear
11:13 PM 71.6 °F - 60.8 °F 69% 29.81 in 10.0 mi South 8.1 mph - N/A   Clear
11:34 PM 69.8 °F - 60.8 °F 73% 29.81 in 10.0 mi SSE 8.1 mph - N/A   Clear
11:53 PM 69.8 °F - 60.8 °F 73% 29.81 in 10.0 mi SSE 6.9 mph - N/A   Clear